Regional Weather Roundup
Issued by NWS Jackson, KY

Home | Current Version | Previous Version | Graphics & Text | Print | Product List | Glossary On
Versions: 1 2 3 4 5 6 7 8 9 10 11 12 13 14 15 16 17 18 19 20 21 22 23 24 25 26 27 28 29 30 31 32 33 34 35 36 37 38 39 40 41 42 43 44 45 46 47 48 49 50
000
ASUS43 KJKL 020910
RWRJKL

EAST KENTUCKY HOURLY WEATHER ROUNDUP
NATIONAL WEATHER SERVICE JACKSON KY
500 AM EDT WED SEP 02 2015

NOTE: "FAIR" INDICATES FEW OR NO CLOUDS BELOW 12,000 FEET WITH
NO SIGNIFICANT WEATHER AND/OR OBSTRUCTIONS TO VISIBILITY.

* THESE REPORTS ARE NOT UNDER NWS QUALITY CONTROL AND MAY NOT
  REPORT WEATHER SUCH AS PRECIPITATION AND FOG.

KYZ079-080-083-085-087-088-110-112-115-119-120-021000
...EASTERN KENTUCKY...

CITY           SKY/WX    TMP DP  RH WIND       PRES   REMARKS
JACKSON        CLEAR     69  67  93 CALM      30.15S FOG
LONDON         CLEAR     67  62  84 CALM      30.14S
SOMERSET*      MOCLDY    63  63 100 CALM      30.14S FOG
MONTICELLO*    FOG       63  63 100 CALM      30.16S VSB<1/4
WILLIAMSBURG*  CLOUDY    63  63 100 CALM      30.14S
MIDDLESBORO*   FOG       65  65 100 CALM      30.15F VSB 3/4
HAZARD APT*    SUNNY     66  66 100 CALM      30.14F FOG
BLACK MTN*       N/A     64  63  94 N1          N/A
PIKEVILLE APT* CLEAR     70  68  94 S5        30.15S
BIG SANDY*     SUNNY     68  68  99 CALM      30.14S FOG
MOREHEAD APT*  MOSUNNY   68  66  94 CALM      30.15R FOG
$$

KYZ035-036-041-042-044-050-067-078-099-021000
...CENTRAL KENTUCKY...

CITY           SKY/WX    TMP DP  RH WIND       PRES   REMARKS
MT STERLING*   CLEAR     64  64 100 CALM      30.15S FOG
FLEMING/MASON* CLEAR     68  66  94 SW3       30.14R FOG
DANVILLE*      CLEAR     64  63  94 CALM      30.14S
RICHMOND*      CLEAR     64  63  94 CALM      30.13R
LEXINGTON      CLEAR     67  64  90 CALM      30.13R
$$

KYZ091>093-OHZ055-061-077-WVZ005-015-034-035-042-021000
...SOUTHERN OHIO/WEST VIRGINIA...

CITY           SKY/WX    TMP DP  RH WIND       PRES   REMARKS
COVINGTON      CLEAR     66  65  96 S3        30.11S FOG
COLUMBUS       PTCLDY    70  67  90 CALM      30.10S
DAYTON         CLEAR     68  66  93 CALM      30.12S
WILMINGTON     CLEAR     65  63  93 CALM      30.12R FOG
HUNTINGTON     CLEAR     66  66 100 CALM      30.11S FOG
CHARLESTON     PTCLDY    67  65  93 CALM      30.11S
PINEVILLE*     CLOUDY    66  66 100 MISG      30.21S FOG
BECKLEY        CLEAR     63  61  93 CALM      30.20S FOG
BLUEFIELD      MOCLDY    68  62  81 W3        30.22S
$$

VAZ002-007-008-TNZ017-027-036-066-071-021000
...SOUTHWEST VIRGINIA/EAST TENNESSEE...

CITY           SKY/WX    TMP DP  RH WIND       PRES   REMARKS
WISE*          CLEAR     66  64  94 CALM      30.22F
JONESVILLE*    CLOUDY    64  63  94 CALM      30.17F FOG
ABINGDON*      MOCLDY    66  64  93 CALM      30.18S
BRISTOL        PTCLDY    65  64  97 N3        30.15S
KNOXVILLE      PTCLDY    69  69 100 CALM      30.11R
OAK RIDGE      CLEAR     69  66  90 CALM      30.13S
CROSSVILLE     PTCLDY    66  63  90 CALM      30.17R FOG
NASHVILLE      MOCLDY    71  67  87 CALM      30.10S
$$

...KEY TO REMARKS...
VSB - VISIBILITY IN MILES
WCI - WIND CHILL INDEX
HX  - HEAT INDEX

$$


USA.gov is the U.S. government's official web portal to all federal, state and local government web resources and services.